This is the latest recevied weather packets stored in our database for station/object JA6YCL-13. If no packets are shown the sender has not sent any weather packets the latest 10 day(s).
| Time | Temp. | Humidity | Pressure | Rain* | Wind** | Luminosity | Snow |
|---|---|---|---|---|---|---|---|
| 1777879740 | 19.44° C | 23% | 1013.3 hPa | 0 mm | - | - | - |
| 1777879020 | 20° C | 22% | 1013.4 hPa | 0 mm | - | - | - |
| 1777878218 | 20° C | 23% | 1013 hPa | 0 mm | - | - | - |
| 1777877343 | 20° C | 22% | 1013.1 hPa | 0 mm | - | - | - |
| 1777876601 | 20° C | 22% | 1013.1 hPa | 0 mm | - | - | - |
| 1777875792 | 20° C | 23% | 1013.1 hPa | 0 mm | - | - | - |
| 1777875063 | 20.56° C | 23% | 1012.9 hPa | 0 mm | - | - | - |
| 1777874188 | 20.56° C | 23% | 1012.9 hPa | 0 mm | - | - | - |
| 1777873307 | 20.56° C | 24% | 1012.5 hPa | 0 mm | - | - | - |
| 1777872483 | 20° C | 24% | 1012.4 hPa | 0 mm | - | - | - |
| 1777871718 | 20.56° C | 33% | 1011.8 hPa | 0 mm | - | - | - |
| 1777871595 | 20.56° C | 33% | 1011.8 hPa | 0 mm | - | - | - |
| 1777863191 | 20° C | 36% | 1011.7 hPa | 0 mm | - | - | - |
| 1777862426 | 20° C | 38% | 1011.7 hPa | 0 mm | - | - | - |
| 1777861548 | 20° C | 39% | 1011.9 hPa | 0 mm | - | - | - |
| 1777860711 | 18.89° C | 42% | 1011.9 hPa | 0 mm | - | - | - |
| 1777859895 | 19.44° C | 41% | 1011.9 hPa | 0 mm | - | - | - |
| 1777859083 | 19.44° C | 42% | 1011.8 hPa | 0 mm | - | - | - |
| 1777858221 | 18.33° C | 45% | 1011.9 hPa | 0 mm | - | - | - |
| 1777857424 | 18.33° C | 45% | 1012 hPa | 0 mm | - | - | - |
| 1777856655 | 18.33° C | 44% | 1011.6 hPa | 0 mm | - | - | - |
| 1777855925 | 18.33° C | 46% | 1011.7 hPa | 0 mm | - | - | - |
| 1777855129 | 18.33° C | 46% | 1011.7 hPa | 0 mm | - | - | - |
| 1777854241 | 18.33° C | 49% | 1011.5 hPa | 0 mm | - | - | - |
| 1777853423 | 18.33° C | 50% | 1011.3 hPa | 0 mm | - | - | - |
* Rain latest hour (hover to see other rain measurements)
** Current wind speed in m/s (hover to see current wind gust speed)